K3MJW-2 Weather Reports


time (UTC)temp
C
wind
direction
speed
KPH
gust
KPH
rain 1hr
cm
rain 24hr
cm
rain mn
cm
humidity
%
barometer
mb
20260507211532 14 297 6.4 12.9 0.00 0.00 0.00 2
20260507211032 15 322 0.0 11.3 0.00 0.00 0.00 2
20260507210533 15 358 1.6 11.3 0.00 0.00 0.00 2
20260507210033 14 60 4.8 8.0 0.00 0.00 0.00 2
20260507205532 14 288 0.0 0.0 0.00 0.00 0.00 2
20260507205032 14 288 3.2 12.9 0.00 0.00 0.00 2
20260507204533 14 301 4.8 11.3 0.00 0.00 0.00 2
20260507204032 13 297 8.0 11.3 0.00 0.00 0.00 2
20260507203532 14 310 8.0 16.1 0.00 0.00 0.00 2
20260507203033 14 308 8.0 12.9 0.00 0.00 0.00 2
20260507202532 14 312 4.8 9.7 0.00 0.00 0.00 2
20260507202033 15 24 3.2 11.3 0.00 0.00 0.00 2
20260507201532 15 290 8.0 12.9 0.00 0.00 0.00 2
20260507201032 15 286 4.8 11.3 0.00 0.00 0.00 2
20260507200532 15 289 3.2 9.7 0.00 0.00 0.00 2
20260507200032 14 292 3.2 11.3 0.00 0.00 0.00 2
20260507195532 14 327 4.8 9.7 0.00 0.00 0.00 2
20260507195033 14 318 0.0 9.7 0.00 0.00 0.00 2
20260507194532 14 317 1.6 11.3 0.00 0.00 0.00 2
20260507194032 14 316 0.0 0.0 0.00 0.00 0.00 2
20260507193532 14 316 0.0 9.7 0.00 0.00 0.00 2
20260507193032 14 296 4.8 9.7 0.00 0.00 0.00 2
20260507192532 14 289 1.6 9.7 0.00 0.00 0.00 2
20260507192032 14 320 8.0 11.3 0.00 0.00 0.00 2
20260507191532 15 295 0.0 9.7 0.00 0.00 0.00 2
20260507191032 14 296 8.0 11.3 0.00 0.00 0.00 2
20260507190533 15 276 1.6 12.9 0.00 0.00 0.00 2
20260507190033 16 210 0.0 4.8 0.00 0.00 0.00 2
20260507185532 14 268 3.2 9.7 0.00 0.00 0.00 2
20260507185033 14 278 4.8 12.9 0.00 0.00 0.00 2
20260507184532 15 315 3.2 9.7 0.00 0.00 0.00 2
20260507184032 14 348 4.8 9.7 0.00 0.00 0.00 2
20260507183532 13 237 0.0 8.0 0.00 0.00 0.00 2
20260507183033 14 290 4.8 19.3 0.00 0.00 0.00 2
20260507182532 14 288 11.3 16.1 0.00 0.00 0.00 2
20260507182033 16 320 11.3 14.5 0.00 0.00 0.00 2
20260507181532 16 275 4.8 16.1 0.00 0.00 0.00 2
20260507181033 15 290 8.0 12.9 0.00 0.00 0.00 2
20260507180533 15 277 8.0 12.9 0.00 0.00 0.00 2
20260507180032 15 286 9.7 12.9 0.00 0.00 0.00 2
20260507175532 14 254 9.7 12.9 0.00 0.00 0.00 2
20260507175032 14 292 8.0 11.3 0.00 0.00 0.00 2
20260507174532 15 279 6.4 11.3 0.00 0.00 0.00 2
20260507174032 15 320 6.4 12.9 0.00 0.00 0.00 2
20260507173532 15 268 9.7 14.5 0.00 0.00 0.00 2
20260507173032 15 275 6.4 11.3 0.00 0.00 0.00 2
20260507172532 15 276 6.4 11.3 0.00 0.00 0.00 2
20260507172032 15 220 3.2 14.5 0.00 0.00 0.00 2
20260507171532 15 258 11.3 14.5 0.00 0.00 0.00 2
20260507171032 15 251 4.8 11.3 0.00 0.00 0.00 2
20260507170532 15 230 8.0 11.3 0.00 0.00 0.00 2
20260507170032 13 279 12.9 14.5 0.00 0.00 0.00 2
20260507165533 13 258 11.3 14.5 0.00 0.00 0.00 2
20260507165033 15 283 4.8 12.9 0.00 0.00 0.00 2
20260507164532 13 286 9.7 14.5 0.00 0.00 0.00 2
20260507164032 14 268 8.0 12.9 0.00 0.00 0.00 2
20260507163532 14 284 4.8 9.7 0.00 0.00 0.00 2
20260507163032 13 286 8.0 12.9 0.00 0.00 0.00 2
20260507162532 13 241 9.7 14.5 0.00 0.00 0.00 2
20260507162032 13 277 3.2 12.9 0.00 0.00 0.00 2
20260507161532 12 287 8.0 12.9 0.00 0.00 0.00 2
20260507161032 13 283 6.4 11.3 0.00 0.00 0.00 2
20260507160532 13 253 3.2 9.7 0.00 0.00 0.00 2
20260507160032 13 176 3.2 11.3 0.00 0.00 0.00 2
20260507155532 13 295 8.0 11.3 0.00 0.00 0.00 2
20260507155033 13 258 1.6 9.7 0.00 0.00 0.00 2
20260507154532 12 295 1.6 11.3 0.00 0.00 0.00 2
20260507154032 12 155 0.0 0.0 0.00 0.00 0.00 2
20260507153532 12 155 0.0 0.0 0.00 0.00 0.00 2
20260507153032 13 155 0.0 0.0 0.00 0.00 0.00 2
20260507152532 12 155 0.0 9.7 0.00 0.00 0.00 2
20260507152032 13 257 8.0 11.3 0.00 0.00 0.00 2
20260507151533 12 278 0.0 9.7 0.00 0.00 0.00 2
20260507151032 12 250 0.0 8.0 0.00 0.00 0.00 2
20260507150532 11 264 8.0 12.9 0.00 0.00 0.00 2
20260507150032 12 284 4.8 9.7 0.00 0.00 0.00 2
20260507145533 12 14 4.8 12.9 0.00 0.00 0.00 2
20260507145032 12 273 8.0 12.9 0.00 0.00 0.00 2
20260507144532 12 323 6.4 11.3 0.00 0.00 0.00 2
20260507144032 11 337 8.0 9.7 0.00 0.00 0.00 2
20260507143532 12 287 6.4 9.7 0.00 0.00 0.00 2
20260507143033 11 312 1.6 11.3 0.00 0.00 0.00 2
20260507142532 12 253 6.4 9.7 0.00 0.00 0.00 2
20260507142032 11 234 0.0 11.3 0.00 0.00 0.00 2
20260507141532 11 261 3.2 11.3 0.00 0.00 0.00 2
20260507141032 11 296 3.2 12.9 0.00 0.00 0.00 2
20260507140533 11 243 3.2 11.3 0.00 0.00 0.00 2
20260507140032 11 130 0.0 0.0 0.00 0.00 0.00 2
20260507135532 11 130 0.0 0.0 0.00 0.00 0.00 2
20260507135032 11 130 0.0 0.0 0.00 0.00 0.00 2
20260507134532 11 130 1.6 4.8 0.00 0.00 0.00 2
20260507134033 10 179 0.0 0.0 0.00 0.00 0.00 2
20260507133532 10 179 0.0 0.0 0.00 0.00 0.00 2
20260507133032 10 179 0.0 0.0 0.00 0.00 0.00 2
20260507132532 10 179 0.0 9.7 0.00 0.00 0.00 2
20260507132032 10 226 0.0 0.0 0.00 0.00 0.00 2
20260507131532 10 226 1.6 11.3 0.00 0.00 0.00 2
20260507131032 9 203 6.4 11.3 0.00 0.00 0.00 2
20260507130533 9 215 8.0 11.3 0.00 0.00 0.00 2
20260507130033 9 186 0.0 0.0 0.00 0.00 0.00 2
20260507125532 8 197 4.8 9.7 0.00 0.00 0.00 2
20260507125032 8 192 0.0 8.0 0.00 0.00 0.00 2
20260507124532 8 206 0.0 3.2 0.00 0.00 0.00 2
20260507124032 8 210 0.0 4.8 0.00 0.00 0.00 2
20260507123532 8 174 0.0 3.2 0.00 0.00 0.00 2
20260507123032 7 196 0.0 0.0 0.00 0.00 0.00 2
20260507122532 7 196 0.0 3.2 0.00 0.00 0.00 2
20260507122032 7 178 0.0 4.8 0.00 0.00 0.00 2
20260507121532 6 240 0.0 0.0 0.00 0.00 0.00 2
20260507121033 6 240 0.0 0.0 0.00 0.00 0.00 2
20260507120532 6 240 0.0 0.0 0.00 0.00 0.00 2
20260507120032 5 240 0.0 0.0 0.00 0.00 0.00 2
20260507115533 5 240 0.0 0.0 0.00 0.00 0.00 2
20260507115032 5 240 0.0 0.0 0.00 0.00 0.00 2
20260507114532 4 240 0.0 0.0 0.00 0.00 0.00 2
20260507114032 4 240 0.0 0.0 0.00 0.00 0.00 2
20260507113532 4 240 0.0 0.0 0.00 0.00 0.00 2
20260507113033 4 240 0.0 0.0 0.00 0.00 0.00 2
20260507112532 4 240 0.0 0.0 0.00 0.00 0.00 2
20260507112033 4 240 0.0 0.0 0.00 0.00 0.00 2
20260507111532 3 240 0.0 0.0 0.00 0.00 0.00 2
20260507111032 3 240 0.0 0.0 0.00 0.00 0.00 2
20260507110532 3 240 0.0 0.0 0.00 0.00 0.00 2
20260507110033 2 240 0.0 0.0 0.00 0.00 0.00 2
20260507105532 2 240 0.0 0.0 0.00 0.00 0.00 2
20260507105032 2 240 0.0 0.0 0.00 0.00 0.00 2
20260507104532 2 240 0.0 0.0 0.00 0.00 0.00 2
20260507104032 2 240 0.0 0.0 0.00 0.00 0.00 2
20260507103533 2 240 0.0 0.0 0.00 0.00 0.00 2
20260507103032 2 240 0.0 0.0 0.00 0.00 0.00 2
20260507102532 2 240 0.0 0.0 0.00 0.00 0.00 2
20260507102032 2 240 0.0 0.0 0.00 0.00 0.00 2
20260507101532 2 240 0.0 0.0 0.00 0.00 0.00 2
20260507101032 2 240 0.0 0.0 0.00 0.00 0.00 2
20260507100532 2 240 0.0 0.0 0.00 0.00 0.00 2
20260507100032 2 240 0.0 0.0 0.00 0.00 0.00 2
20260507095532 2 240 0.0 0.0 0.00 0.00 0.00 2
20260507095033 2 240 0.0 0.0 0.00 0.00 0.00 2
20260507094532 2 240 0.0 0.0 0.00 0.00 0.00 2
20260507094032 2 240 0.0 0.0 0.00 0.00 0.00 2
20260507093532 2 240 0.0 0.0 0.00 0.00 0.00 2
20260507093032 2 240 0.0 0.0 0.00 0.00 0.00 2
20260507092533 2 240 0.0 0.0 0.00 0.00 0.00 2
20260507092032 3 240 0.0 0.0 0.00 0.00 0.00 2
20260507091532 3 240 0.0 0.0 0.00 0.00 0.00 2
20260507091032 3 240 0.0 0.0 0.00 0.00 0.00 2
20260507090532 3 240 0.0 0.0 0.00 0.00 0.00 2
20260507090032 3 240 0.0 0.0 0.00 0.00 0.00 2
20260507085532 3 240 0.0 0.0 0.00 0.00 0.00 2
20260507085032 3 240 0.0 0.0 0.00 0.00 0.00 2
20260507084533 3 240 0.0 0.0 0.00 0.00 0.00 2
20260507084032 3 240 0.0 0.0 0.00 0.00 0.00 2
20260507083532 3 240 0.0 0.0 0.00 0.00 0.00 2
20260507083033 3 240 0.0 0.0 0.00 0.00 0.00 2
20260507082532 3 240 0.0 0.0 0.00 0.00 0.00 2
20260507082032 3 240 0.0 0.0 0.00 0.00 0.00 2
20260507081532 3 240 0.0 0.0 0.00 0.00 0.00 2
20260507081032 4 240 0.0 0.0 0.00 0.00 0.00 2
20260507080532 4 240 0.0 0.0 0.00 0.00 0.00 2
20260507080032 4 240 0.0 0.0 0.00 0.00 0.00 2
20260507075532 4 240 0.0 0.0 0.00 0.00 0.00 2
20260507075032 5 240 0.0 0.0 0.00 0.00 0.00 2
20260507074532 5 240 0.0 0.0 0.00 0.00 0.00 2
20260507074032 5 240 0.0 0.0 0.00 0.00 0.00 2
20260507073533 5 240 0.0 0.0 0.00 0.00 0.00 2
20260507073032 5 240 0.0 0.0 0.00 0.00 0.00 2
20260507072532 5 240 0.0 0.0 0.00 0.00 0.00 2
20260507072032 5 240 0.0 0.0 0.00 0.00 0.00 2
20260507071532 5 240 0.0 0.0 0.00 0.00 0.00 2
20260507071032 5 240 0.0 0.0 0.00 0.00 0.00 2
20260507070532 6 240 0.0 0.0 0.00 0.00 0.00 2
20260507070032 6 240 0.0 0.0 0.00 0.00 0.00 2
20260507065532 6 240 0.0 0.0 0.00 0.00 0.00 2
20260507065032 6 240 0.0 0.0 0.00 0.00 0.00 2
20260507064532 6 240 0.0 0.0 0.00 0.00 0.00 2
20260507064032 6 240 0.0 0.0 0.00 0.00 0.00 2
20260507063532 6 240 0.0 0.0 0.00 0.00 0.00 2
20260507063032 6 240 0.0 0.0 0.00 0.00 0.00 2
20260507062532 7 240 0.0 0.0 0.00 0.00 0.00 2
20260507062032 7 240 0.0 0.0 0.00 0.00 0.00 2
20260507061532 7 240 0.0 0.0 0.00 0.00 0.00 2
20260507061032 7 240 0.0 0.0 0.00 0.00 0.00 2
20260507060532 7 240 0.0 0.0 0.00 0.00 0.00 2
20260507060032 7 240 0.0 0.0 0.00 0.00 0.00 2
20260507055532 7 240 0.0 0.0 0.00 0.00 0.00 2
20260507055032 7 240 0.0 0.0 0.00 0.00 0.00 2
20260507054532 7 240 0.0 0.0 0.00 0.00 0.00 2
20260507054032 7 240 0.0 0.0 0.00 0.00 0.00 2
20260507053533 7 240 0.0 0.0 0.00 0.00 0.00 2
20260507053032 7 240 0.0 0.0 0.00 0.00 0.00 2
20260507052532 7 240 0.0 0.0 0.00 0.00 0.00 2
20260507052032 7 240 0.0 0.0 0.00 0.00 0.00 2
20260507051532 7 240 0.0 0.0 0.00 0.00 0.00 2
20260507051032 7 240 0.0 0.0 0.00 0.00 0.00 2
20260507050532 7 240 0.0 0.0 0.00 0.00 0.00 2
20260507050032 7 240 0.0 0.0 0.00 0.00 0.00 2
20260507045532 7 240 0.0 0.0 0.00 0.00 0.00 2
20260507045032 7 240 0.0 0.0 0.00 0.00 0.00 2
20260507044532 8 240 0.0 0.0 0.00 0.00 0.00 2
20260507044032 7 240 0.0 0.0 0.00 0.00 0.00 2
20260507043532 8 240 0.0 0.0 0.00 0.00 0.00 2
20260507043032 8 240 0.0 0.0 0.00 0.00 0.00 2
20260507042532 8 240 0.0 0.0 0.00 0.00 0.00 2
20260507042032 8 240 0.0 0.0 0.00 0.00 0.00 2
20260507041532 8 240 0.0 0.0 0.00 0.00 0.00 2
20260507041032 8 240 0.0 0.0 0.00 0.00 0.00 2
20260507040533 7 240 0.0 0.0 0.00 0.00 0.00 2
20260507040032 7 240 0.0 0.0 0.00 0.00 0.00 2
20260507035532 7 240 0.0 0.0 0.00 0.00 0.00 2
20260507035032 8 240 0.0 0.0 0.00 0.00 0.00 2
20260507034532 8 240 0.0 0.0 0.00 0.00 0.00 2
20260507034032 8 240 0.0 0.0 0.00 0.00 0.00 2
20260507033532 8 240 0.0 0.0 0.00 0.00 0.00 2
20260507033032 8 240 0.0 0.0 0.00 0.00 0.00 2
20260507032532 8 240 0.0 0.0 0.00 0.00 0.00 2
20260507032032 8 240 0.0 0.0 0.00 0.00 0.00 2
20260507031532 8 240 0.0 0.0 0.00 0.00 0.00 2
20260507031032 8 240 0.0 0.0 0.00 0.00 0.00 2
20260507030532 8 240 0.0 0.0 0.00 0.00 0.00 2
20260507030032 8 240 0.0 0.0 0.00 0.00 0.00 2
20260507025532 8 240 0.0 0.0 0.00 0.00 0.00 2
20260507025032 8 240 0.0 0.0 0.00 0.00 0.00 2
20260507024532 8 240 0.0 0.0 0.00 0.00 0.00 2
20260507024032 8 240 0.0 0.0 0.00 0.00 0.00 2
20260507023532 8 240 0.0 0.0 0.00 0.00 0.00 2
20260507023032 8 240 0.0 0.0 0.00 0.00 0.00 2
20260507022532 8 240 0.0 0.0 0.00 0.00 0.00 2
20260507022032 8 240 0.0 0.0 0.00 0.00 0.00 2
20260507021532 9 240 0.0 0.0 0.00 0.00 0.00 2
20260507021031 8 240 0.0 0.0 0.00 0.00 0.00 2
20260507020531 9 240 0.0 0.0 0.00 0.00 0.00 2
20260507020031 9 240 0.0 0.0 0.00 0.00 0.00 2
20260507015532 9 240 0.0 0.0 0.00 0.00 0.00 2
20260507015032 9 240 0.0 0.0 0.00 0.00 0.00 2
20260507014531 9 240 0.0 0.0 0.00 0.00 0.00 2
20260507014032 9 240 0.0 0.0 0.00 0.00 0.00 2
20260507013532 9 240 0.0 0.0 0.00 0.00 0.00 2
20260507013032 9 240 0.0 0.0 0.00 0.00 0.00 2
20260507012532 9 240 0.0 0.0 0.00 0.00 0.00 2
20260507012032 9 240 0.0 0.0 0.00 0.00 0.00 2
20260507011532 10 240 0.0 0.0 0.00 0.00 0.00 2
20260507011032 10 240 0.0 0.0 0.00 0.00 0.00 2
20260507010532 10 240 0.0 0.0 0.00 0.00 0.00 2
20260507010032 10 240 0.0 0.0 0.00 0.00 0.00 2
20260507005532 10 240 0.0 0.0 0.00 0.00 0.00 2
20260507005032 10 240 0.0 0.0 0.00 0.00 0.00 2
20260507004531 10 240 0.0 0.0 0.00 0.00 0.00 2
20260507004032 10 240 0.0 0.0 0.00 0.00 0.00 2
20260507003531 10 240 0.0 0.0 0.00 0.00 0.00 2
20260507003032 10 240 0.0 0.0 0.00 0.00 0.00 2
20260507002532 10 240 0.0 0.0 0.00 0.00 0.00 2
20260507002032 10 240 0.0 0.0 0.00 0.00 0.00 2
20260507001532 10 240 0.0 0.0 0.00 0.00 0.00 2
20260507001032 10 240 0.0 0.0 0.00 0.00 0.00 2
20260507000532 10 240 0.0 0.0 0.00 0.00 0.00 2
20260507000031 10 240 0.0 0.0 0.00 0.00 0.00 2
20260506235532 10 240 0.0 0.0 0.00 0.00 0.00 2
20260506235032 11 240 0.0 0.0 0.00 0.00 0.00 2
20260506234532 11 240 0.0 0.0 0.00 0.00 0.00 2
20260506234032 11 240 0.0 0.0 0.00 0.00 0.00 2
20260506233532 11 240 0.0 0.0 0.00 0.00 0.00 2
20260506233032 11 240 0.0 0.0 0.00 0.00 0.00 2
20260506232532 11 240 0.0 0.0 0.00 0.00 0.00 2
20260506232032 11 240 0.0 0.0 0.00 0.00 0.00 2
20260506231531 11 240 0.0 0.0 0.00 0.00 0.00 2
20260506231032 11 240 0.0 0.0 0.00 0.00 0.00 2
20260506230532 11 240 0.0 0.0 0.00 0.00 0.00 2
20260506230032 11 240 0.0 0.0 0.00 0.00 0.00 2
20260506225532 11 240 0.0 0.0 0.00 0.00 0.00 2
20260506225032 11 240 0.0 0.0 0.00 0.00 0.00 2
20260506224532 11 240 0.0 0.0 0.00 0.00 0.00 2
20260506224032 11 240 0.0 0.0 0.00 0.00 0.00 2
20260506223531 11 240 0.0 0.0 0.00 0.00 0.00 2
20260506223032 11 240 0.0 0.0 0.00 0.00 0.00 2
20260506222532 11 240 0.0 0.0 0.00 0.00 0.00 2
20260506222032 11 240 0.0 0.0 0.00 0.00 0.00 2
20260506221532 11 240 0.0 0.0 0.00 0.00 0.00 2
20260506221032 11 240 0.0 0.0 0.00 0.00 0.00 2
20260506220532 11 240 0.0 0.0 0.00 0.00 0.00 2
20260506220032 11 240 0.0 0.0 0.00 0.00 0.00 2
20260506215532 11 240 0.0 0.0 0.00 0.00 0.00 2
20260506215032 11 240 0.0 0.0 0.00 0.00 0.00 2
20260506214531 11 240 0.0 0.0 0.00 0.00 0.00 2
20260506214032 11 240 0.0 0.0 0.00 0.00 0.00 2
20260506213531 11 240 1.6 4.8 0.00 0.00 0.00 2
20260506213032 11 298 0.0 0.0 0.00 0.00 0.00 2
20260506212531 11 298 0.0 0.0 0.00 0.00 0.00 2
20260506212031 11 298 0.0 0.0 0.00 0.00 0.00 2